Location: Altamira
(10.5079°N, 66.8544°W)
Time: 09:02:22
(UTC+00:00)

SMAP - Pass Details

Date: 08 December 2021
Orbit: 682 x 683 km, 98.1° (Epoch: 24 January)

Event Time Altitude Azimuth Distance (km) Brightness Sun altitude
Rises 22:31:43 0° 178° (S) 3,034 6.7 -6.8°
Reaches altitude 10° 22:34:00 10° 183° (S) 2,119 6.0 -7.3°
Maximum altitude 22:38:29 50° 258° (WSW) 866 4.1 -8.4°
Drops below altitude 10° 22:42:59 10° 334° (NNW) 2,118 5.7 -9.4°
Sets 22:45:16 0° 340° (NNW) 3,033 6.4 -9.9°
